TimeEST,TemperatureF,Dew PointF,Humidity,Sea Level PressureIn,VisibilityMPH,Wind Direction,Wind SpeedMPH,Gust SpeedMPH,PrecipitationIn,Events,Conditions,WindDirDegrees,DateUTC
12:15 AM,44.6,26.6,49,30.19,10.0,NNW,3.5,-,N/A,,Clear,340,2012-11-22 05:15:00
12:35 AM,44.6,26.6,49,30.19,10.0,North,3.5,-,N/A,,Clear,350,2012-11-22 05:35:00
12:55 AM,41.0,26.6,57,30.19,10.0,Calm,Calm,-,N/A,,Clear,0,2012-11-22 05:55:00
1:15 AM,41.0,26.6,57,30.19,10.0,WSW,4.6,-,N/A,,Clear,240,2012-11-22 06:15:00
1:35 AM,41.0,26.6,57,30.19,10.0,Calm,Calm,-,N/A,,Clear,0,2012-11-22 06:35:00
1:55 AM,42.8,24.8,49,30.19,10.0,Calm,Calm,-,N/A,,Clear,0,2012-11-22 06:55:00
2:15 AM,42.8,24.8,49,30.19,10.0,Calm,Calm,-,N/A,,Clear,0,2012-11-22 07:15:00
2:35 AM,41.0,26.6,57,30.19,10.0,Calm,Calm,-,N/A,,Clear,0,2012-11-22 07:35:00
2:55 AM,41.0,26.6,57,30.20,10.0,Calm,Calm,-,N/A,,Clear,0,2012-11-22 07:55:00
3:15 AM,37.4,26.6,65,30.20,10.0,Calm,Calm,-,N/A,,Clear,0,2012-11-22 08:15:00
3:35 AM,39.2,23.0,52,30.20,10.0,Calm,Calm,-,N/A,,Clear,0,2012-11-22 08:35:00
3:55 AM,37.4,23.0,56,30.20,10.0,Calm,Calm,-,N/A,,Clear,0,2012-11-22 08:55:00
4:15 AM,39.2,23.0,52,30.20,10.0,Calm,Calm,-,N/A,,Clear,0,2012-11-22 09:15:00
4:35 AM,37.4,23.0,56,30.20,10.0,Calm,Calm,-,N/A,,Clear,0,2012-11-22 09:35:00
5:15 AM,35.6,24.8,65,30.21,10.0,Calm,Calm,-,N/A,,Clear,0,2012-11-22 10:15:00
5:35 AM,35.6,23.0,60,30.21,10.0,Calm,Calm,-,N/A,,Clear,0,2012-11-22 10:35:00
6:15 AM,33.8,28.4,81,30.22,10.0,Calm,Calm,-,N/A,,Clear,0,2012-11-22 11:15:00
6:35 AM,35.6,26.6,70,30.22,10.0,Calm,Calm,-,N/A,,Clear,0,2012-11-22 11:35:00
6:55 AM,37.4,23.0,56,30.22,10.0,Calm,Calm,-,N/A,,Clear,0,2012-11-22 11:55:00
7:15 AM,39.2,23.0,52,30.22,10.0,North,3.5,-,N/A,,Clear,360,2012-11-22 12:15:00
7:35 AM,35.6,23.0,60,30.23,10.0,Calm,Calm,-,N/A,,Clear,0,2012-11-22 12:35:00
7:55 AM,33.8,26.6,75,30.23,10.0,Calm,Calm,-,N/A,,Clear,0,2012-11-22 12:55:00
8:15 AM,33.8,28.4,81,30.24,10.0,Calm,Calm,-,N/A,,Clear,0,2012-11-22 13:15:00
8:35 AM,37.4,28.4,70,30.24,10.0,Calm,Calm,-,N/A,,Clear,0,2012-11-22 13:35:00
8:55 AM,41.0,30.2,65,30.24,10.0,Calm,Calm,-,N/A,,Clear,0,2012-11-22 13:55:00
9:15 AM,41.0,30.2,65,30.24,10.0,Calm,Calm,-,N/A,,Clear,0,2012-11-22 14:15:00
9:35 AM,42.8,32.0,66,30.25,10.0,Calm,Calm,-,N/A,,Clear,0,2012-11-22 14:35:00
9:55 AM,44.6,32.0,61,30.25,10.0,Calm,Calm,-,N/A,,Clear,0,2012-11-22 14:55:00
10:15 AM,48.2,23.0,37,30.25,10.0,Calm,Calm,-,N/A,,Clear,0,2012-11-22 15:15:00
10:35 AM,50.0,23.0,35,30.25,10.0,Calm,Calm,-,N/A,,Clear,0,2012-11-22 15:35:00
10:55 AM,50.0,28.4,43,30.25,10.0,Calm,Calm,-,N/A,,Clear,0,2012-11-22 15:55:00
11:15 AM,51.8,23.0,33,30.25,10.0,ENE,3.5,-,N/A,,Clear,60,2012-11-22 16:15:00
11:35 AM,53.6,21.2,28,30.24,10.0,Calm,Calm,-,N/A,,Clear,0,2012-11-22 16:35:00
11:55 AM,53.6,23.0,30,30.24,10.0,NE,3.5,-,N/A,,Clear,40,2012-11-22 16:55:00
12:15 PM,53.6,23.0,30,30.22,10.0,ESE,5.8,-,N/A,,Clear,120,2012-11-22 17:15:00
12:35 PM,53.6,23.0,30,30.21,10.0,East,5.8,-,N/A,,Clear,100,2012-11-22 17:35:00
1:15 PM,55.4,23.0,29,30.20,10.0,ENE,3.5,-,N/A,,Clear,70,2012-11-22 18:15:00
1:35 PM,55.4,23.0,29,30.20,10.0,NE,3.5,-,N/A,,Clear,40,2012-11-22 18:35:00
2:15 PM,57.2,21.2,25,30.19,10.0,Calm,Calm,-,N/A,,Clear,0,2012-11-22 19:15:00
2:35 PM,57.2,21.2,25,30.18,10.0,Calm,Calm,-,N/A,,Clear,0,2012-11-22 19:35:00
2:55 PM,57.2,21.2,25,30.17,10.0,Calm,Calm,-,N/A,,Clear,0,2012-11-22 19:55:00
3:15 PM,59.0,21.2,23,30.17,10.0,ENE,5.8,-,N/A,,Clear,70,2012-11-22 20:15:00
3:35 PM,59.0,21.2,23,30.17,10.0,East,3.5,-,N/A,,Clear,100,2012-11-22 20:35:00
3:55 PM,57.2,19.4,23,30.17,10.0,Calm,Calm,-,N/A,,Clear,0,2012-11-22 20:55:00
4:15 PM,55.4,24.8,31,30.18,10.0,SSE,3.5,-,N/A,,Clear,150,2012-11-22 21:15:00
4:35 PM,53.6,26.6,35,30.18,10.0,Calm,Calm,-,N/A,,Clear,0,2012-11-22 21:35:00
4:55 PM,51.8,26.6,38,30.18,10.0,SSE,4.6,-,N/A,,Clear,160,2012-11-22 21:55:00
5:15 PM,51.8,26.6,38,30.18,10.0,SSE,3.5,-,N/A,,Clear,150,2012-11-22 22:15:00
5:35 PM,51.8,26.6,38,30.18,10.0,SSE,3.5,-,N/A,,Clear,160,2012-11-22 22:35:00
5:55 PM,50.0,26.6,40,30.19,10.0,Calm,Calm,-,N/A,,Clear,0,2012-11-22 22:55:00
6:15 PM,50.0,26.6,40,30.19,10.0,Calm,Calm,-,N/A,,Clear,0,2012-11-22 23:15:00
6:35 PM,50.0,26.6,40,30.19,10.0,Calm,Calm,-,N/A,,Clear,0,2012-11-22 23:35:00
7:15 PM,48.2,26.6,43,30.19,10.0,Calm,Calm,-,N/A,,Clear,0,2012-11-23 00:15:00
7:35 PM,48.2,26.6,43,30.19,10.0,Calm,Calm,-,N/A,,Clear,0,2012-11-23 00:35:00
7:55 PM,46.4,26.6,46,30.20,10.0,Calm,Calm,-,N/A,,Clear,0,2012-11-23 00:55:00
8:15 PM,46.4,26.6,46,30.20,10.0,Calm,Calm,-,N/A,,Clear,0,2012-11-23 01:15:00
8:35 PM,46.4,26.6,46,30.20,10.0,Calm,Calm,-,N/A,,Clear,0,2012-11-23 01:35:00
8:55 PM,46.4,26.6,46,30.20,10.0,Calm,Calm,-,N/A,,Clear,0,2012-11-23 01:55:00
9:15 PM,44.6,26.6,49,30.20,10.0,Calm,Calm,-,N/A,,Clear,0,2012-11-23 02:15:00
9:35 PM,44.6,26.6,49,30.20,10.0,Calm,Calm,-,N/A,,Clear,0,2012-11-23 02:35:00
9:55 PM,46.4,26.6,46,30.19,10.0,Calm,Calm,-,N/A,,Clear,0,2012-11-23 02:55:00
10:15 PM,42.8,26.6,53,30.19,10.0,WSW,3.5,-,N/A,,Clear,250,2012-11-23 03:15:00
10:35 PM,41.0,26.6,57,30.18,10.0,WSW,3.5,-,N/A,,Clear,250,2012-11-23 03:35:00
10:55 PM,41.0,26.6,57,30.18,10.0,WSW,3.5,-,N/A,,Clear,240,2012-11-23 03:55:00
11:15 PM,39.2,28.4,65,30.18,10.0,West,3.5,-,N/A,,Clear,260,2012-11-23 04:15:00
11:35 PM,41.0,26.6,57,30.17,10.0,WSW,3.5,-,N/A,,Clear,250,2012-11-23 04:35:00
11:55 PM,41.0,26.6,57,30.17,10.0,West,4.6,-,N/A,,Clear,270,2012-11-23 04:55:00